sat.trackr.live / text

‹ back to catalog

STARLINK-30112

NORAD 56306 · 2023-056W

PAYLOAD ACTIVE UNKNOWN

§ Identity

Operator
Country
US
Launch date
2023-04-19
Launch site
AFETR
Launch vehicle
Mass (kg)
RCS (m²)

Purposes: comms

External: N2YO · Heavens-Above · Gunter

§ Orbital elements

Epoch: 2026-09-20T05:09:01.225728Z

Period
94.27 min
Inclination
43.0004°
Eccentricity
0.0000783
Mean motion
15.27473013 rev/d
Perigee alt
482.8 km
Apogee alt
483.9 km
Semi-major
6,861.5 km
B*
8.9310e-4
RAAN
189.9590°
Arg perigee
170.2904°
Mean anomaly
189.7963°
Rev number
18,985

§ Raw data

STARLINK-301121 56306U 23056W   26263.21459752  .00024315  00000+0  89310-3 0  99982 56306  43.0004 189.9590 0000783 170.2904 189.7963 15.27473013189852

JSON: /api/v1/satellites/56306 · /tle

For live sub-satellite position, see the globe view (requires WebGL).

§ Visibility from observer

Set your observer location to see the next 7 days of passes ≥ 10°. The values pass through the URL so the page stays shareable.

No JS? Fill the form by hand. The geolocation button needs JavaScript.